Regional Weather Roundup
Issued by NWS Northern Indiana

Home | Current Version | Previous Version | Graphics & Text | Print | Product List | Glossary On
Versions: 1 2 3 4 5 6 7 8 9 10 11 12 13 14 15 16 17 18 19 20 21 22 23 24 25 26 27 28 29 30 31 32 33 34 35 36 37 38 39 40 41 42 43 44 45 46 47 48 49 50
000
ASUS43 KIWX 270510
RWRIWX

KIWX WEATHER ROUNDUP
NATIONAL WEATHER SERVICE NORTHERN INDIANA
100 AM EDT THU JUL 27 2017

NOTE: "FAIR" INDICATES FEW OR NO CLOUDS BELOW 12,000 FEET WITH NO
SIGNIFICANT WEATHER AND/OR OBSTRUCTIONS TO VISIBILITY.

* THESE STATIONS ARE NOT UNDER NWS QUALITY CONTROL. THEY ALSO MAY NOT
  REPORT WEATHER SUCH AS PRECIPITATION OR FOG.

INZ001>027-270600-
NORTHERN INDIANA

CITY           SKY/WX    TMP DP  RH WIND       PRES   REMARKS
GARY*          CLOUDY    78  71  79 SE6       29.95F
VALPARAISO     MOCLDY    74  71  91 E5        29.96F
MICHIGAN CITY* CLOUDY    73  68  83 CALM      29.97F
LAPORTE*       CLOUDY    72  69  92 SE3       29.98F
KNOX*          CLOUDY    72  70  94 E5        29.96F
SOUTH BEND     CLOUDY    74  69  85 S6        29.98F
GOSHEN         CLOUDY    73  65  75 SE6       29.99F
MONTICELLO*    MOCLDY    74  71  88 SE3       29.95F
LOGANSPORT*    MOCLDY    70  70 100 E5        29.97F
ROCHESTER*     CLOUDY    73  70  88 E5        29.98F HAZE
WARSAW*        CLOUDY    72  66  83 CALM      30.00F
AUBURN*        CLOUDY    70  64  83 CALM      30.01F
FORT WAYNE     CLOUDY    71  67  87 SE5       30.00F
HUNTINGTON*    CLOUDY    72  67  85 SE3       29.99F
PERU/GRISSOM     N/A    N/A N/A N/A SE6         N/A
MARION*        CLOUDY    72  68  88 SE3       30.00F

$$
INZ028>050-270600-
CENTRAL INDIANA

CITY           SKY/WX    TMP DP  RH WIND       PRES   REMARKS
LAFAYETTE      CLOUDY    75  73  93 E6        29.94F
KOKOMO*        CLOUDY    72  70  93 SE3       29.99F
MUNCIE*        CLOUDY    76  67  73 SE5       30.00F
INDIANAPOLIS   CLOUDY    77  72  84 SE6       29.97F

$$
MIZ043>046-050>051-056>058-064>065-071>073-077>080-270600-
SOUTHWEST LOWER MICHIGAN

CITY           SKY/WX    TMP DP  RH WIND       PRES   REMARKS
BATTLE CREEK   CLOUDY    72  65  78 S3        30.01F
BENTON HARBOR  CLOUDY    73  67  81 SE3       29.97F
COLDWATER*     CLOUDY    71  66  84 SE5       30.01S
HILLSDALE*     CLOUDY    68  63  83 CALM      30.02S
HOLLAND        PTCLDY    73  66  78 S5        29.98F
GRAND RAPIDS   PTCLDY    72  67  84 S3        29.99S
KALAMAZOO      CLOUDY    74  64  71 S3        30.00F
STURGIS*       CLOUDY    71  66  84 CALM      30.00F
THREE RIVERS*  FAIR      70  66  87 CALM      30.01S

$$
OHZ001>008-015>018-024>025-270600-
NORTHWEST OHIO

CITY           SKY/WX    TMP DP  RH WIND       PRES   REMARKS
WAUSEON*       MOCLDY    68  66  94 S3        30.01S
DEFIANCE       MOCLDY    71  63  75 S3        30.00F
FINDLAY        PTCLDY    69  63  81 S5        30.01F
TOLEDO EXPRESS CLOUDY    67  66  97 S3        30.00F
TOLEDO METCALF PTCLDY    71  66  84 SE5       30.01F
LIMA           MOCLDY    68  65  90 SE6       30.02F

$$
AND FOR LAKE MICHIGAN COASTAL AND OPEN LAKE BUOY OBSERVATIONS

STATION/POSITION TEMP    WIND        PRES    VSBY  WAVE
                 AIR SEA DIR/SP/G                  HT/PER
                 (F)     (DEG/KT/KT) (MB)    (MI)  (FT/S)
CALUMET HARBOR    78     140/  3/  6 1013.7F
MICHIGAN CITY     76     140/  5/  6   N/A
BURNS HARBOR      78     160/  9/ 13 1014.9F
SAINT JOSEPH      75     170/  1/  4 1015.9
SOUTH LAKE BUOY   73 70  150/  6/  8 1014.2F         1
4 MI NW BRIDGMAN  75 74  200/  6/  6 1014.5          1
MICHIGAN CITY     76 75  140/  6/  6   N/A           0

$$
&&




USA.gov is the U.S. government's official web portal to all federal, state and local government web resources and services.